Regional Weather Roundup
Issued by NWS Upton, NY

Current Version | Previous Version | Graphics & Text | Print | Product List | Glossary Off
Versions: 1 2 3 4 5 6 7 8 9 10 11 12 13 14 15 16 17 18 19 20 21 22 23 24 25 26 27

000
ASUS41 KOKX 242309
RWROKX

REGIONAL WEATHER ROUNDUP
NATIONAL WEATHER SERVICE NEW YORK NY
700 PM EDT WED MAY 24 2017

NOTE: "FAIR" INDICATES FEW OR NO CLOUDS BELOW 12,000 FEET WITH NO
SIGNIFICANT WEATHER AND/OR OBSTRUCTIONS TO VISIBILITY.

NYZ071-072-176-178-NJZ106-104-250000-
NEW YORK CITY METRO AREA

CITY           SKY/WX    TMP DP  RH WIND       PRES   REMARKS
Central Park   CLOUDY    64  53  67 CALM      29.80S
Wall St Helipt CLOUDY    63  52  67 SE6       29.79S
Bronx Bot Gard   N/A     66  48  52 E3        29.77F
LaGuardia APRT PTSUNNY   66  53  63 VRB3      29.77S
Kennedy INTL   CLOUDY    62  53  72 E13       29.79R
Breezy Point     N/A     57 N/A N/A E8          N/A
Newark/Liberty CLOUDY    63  52  67 SE8       29.78S
Teterboro      MOSUNNY   67  51  56 SE6       29.76S
$$

NYZ177-179-078>081-250000-
LONG ISLAND NEW YORK

CITY           SKY/WX    TMP DP  RH WIND       PRES   REMARKS
Jones Beach      N/A     57 N/A N/A E10         N/A
Matinecock PT  NOT AVBL
Farmingdale    MOSUNNY   62  51  67 SE9       29.79R
MacArthur/ISP  PTSUNNY   63  51  65 SE10      29.79R
Shirley        MOSUNNY   62  53  72 VRB5      29.79R
Mt Sinai Harb    N/A    N/A N/A N/A NE8         N/A
Westhampton    CLOUDY    58  49  72 E9G16     29.79F
East Hampton     N/A     59  48  68 E9G18     29.78S
Montauk          N/A     59  50  72 E9        29.79F
$$

NYZ052-065-067-250000-
HUDSON VALLEY

CITY           SKY/WX    TMP DP  RH WIND       PRES   REMARKS
White Plains   MOSUNNY   63  47  55 E9        29.78R
Larchmont Harb   N/A     61 N/A N/A N14         N/A
Croton O-T Hud   N/A     66 N/A N/A SE5G12      N/A
Newburgh       NOT AVBL
Montgomery     SUNNY     70  50  49 SE10      29.75S
Poughkeepsie   PTSUNNY   71  49  45 SE5       29.74R
Albany         MOSUNNY   74  47  38 S9        29.75R
$$

NJZ001-105-106-008-010-013-015-019>022-104-250000-
NEW JERSEY

CITY           SKY/WX    TMP DP  RH WIND       PRES   REMARKS
Newark/Liberty CLOUDY    63  52  67 SE8       29.78S
Teterboro      MOSUNNY   67  51  56 SE6       29.76S
Caldwell       CLOUDY    68  49  50 S6        29.77F
Somerville     MOSUNNY   66  51  58 VRB6      29.75R
Linden           N/A     62  49  64 S9        29.79R
Perth Amboy      N/A     59 N/A N/A E15         N/A
Sussex         PTSUNNY   67  49  52 SE9       29.77F
Andover          N/A     66  47  50 CALM      29.76F
Trenton        CLOUDY    65  49  56 SE9       29.76R
Millville      CLOUDY    62  53  72 E10       29.78R
Atlantic City  CLOUDY    60  51  72 E10       29.79R
Wrightstown    PTSUNNY   62  50  64 NE10      29.76R
Toms River     PTSUNNY   60  53  77 E6        29.81R
Belmar         CLOUDY    59  51  75 E9        29.81R
$$

PAZ047>061-062-071-250000-
EASTERN PENNSYLVANIA

CITY           SKY/WX    TMP DP  RH WIND       PRES   REMARKS
Philadelphia   CLOUDY    66  50  56 E13       29.75F
Allentown      CLOUDY    69  50  50 SE9       29.74S
Scranton       CLOUDY    69  49  48 SE8       29.74R
$$

CTZ002-004>006-009-010-012-RIZ004-006-007-MAZ004-011-015-250000-
SOUTHERN NEW ENGLAND
 IN CT

CITY           SKY/WX    TMP DP  RH WIND       PRES   REMARKS
Bradley INTL   MOSUNNY   71  47  42 E10       29.76F
Hartford       MOSUNNY   70  51  51 NE7       29.76F
Danbury        MOSUNNY   63  52  67 SE8       29.79R
Wtrbury/Oxford PTSUNNY   63  48  59 S8        29.79R
Bridgeport     SUNNY     64  50  60 NE9       29.79R
Meriden        MOSUNNY   64  52  64 SW6       29.77R
New Haven      SUNNY     62  49  62 E7        29.79R
Chester        DRIZZLE   63  50  63 SE6       29.79S
Groton         MOSUNNY   61  49  64 E16       29.77S
Wilimantic     PTSUNNY   71  48  43 E7        29.78F

 IN RI

CITY           SKY/WX    TMP DP  RH WIND       PRES   REMARKS
Providence     PTSUNNY   64  51  62 E9        29.79F
Block Island   SUNNY     57  52  83 NE8       29.79
Westerly       MOSUNNY   63  50  62 E10       29.78F
 IN MA

CITY           SKY/WX    TMP DP  RH WIND       PRES   REMARKS
Boston         MOSUNNY   58  51  78 E9        29.83F
Worcester      SUNNY     63  43  48 E9        29.81F
Westfield      SUNNY     71  50  47 VRB5      29.76F
Provincetown   PTCLDY    56  50  80 E7        29.84S
Nantucket      CLEAR     55  48  77 NE15      29.79S
$$

ANZ330-335-338-340-345-350-353-355-250000-
COASTAL MARINE OBSERVATIONS


STATION/POSITION TIME  SKY/WX   TEMP    WIND        PRES    VSBY  WAVE
                                AIR SEA DIR/SP/G                  HT/PER
                 (UTC)          (F)     (DEG/KT/KT) (MB)    (MI)  (FT/S)
NY HARB ENTRANCE 2150            58 58   90/ 14/ 16 1007.9          5/ 7
20 S FIRE ISLAND 2250            56 55   50/ 12/ 14 1007.6          5/ 8
GREAT SOUTH BAY  2215            60 65  100/ 14/ 16   N/A
23 SSW MONTAUK P 2250            55 55              1008.1          6/ 7
15 E BARNEGAT LI 2230               58                N/A           6/ 7
HUDSON CANYON    2250            53 53   50/ 16/ 17 1006.8          7/ 8
KINGS POINT      2230            63 58   60/  3/  7 1008.1
EXECUTION ROCKS  2245            64                   N/A
CENTRAL LI SOUND NOT AVBL
EASTERN LI SOUND NOT AVBL
ROBBINS REEF     2230            60     170/ 11/ 12 1008.9
$$


>>>>>>>>>>>>>>>>>>>>>>>>>>>> KEY <<<<<<<<<<<<<<<<<<<<<<<<<<<
>                                                          <
>     SKY/WX - Sky Condition/Present Weather               <
>     TMP    - Temperature in Fahrenheit                   <
>     DP     - Dew Point in Fahrenheit                     <
>     RH     - Relative Humidity in Percent                <
>     WIND   - Direction (from) and Speed in MPH           <
>     PRES   - Mean Sea Level Pressure (inches of Hg)      <
>     WCI    - Wind Chill Index                            <
>     VSB    - VISIBILITY IN MILES                         <
>     HX     - HEAT INDEX                                  <
>     TC     - TEMPERATURE IN CELSIUS                      <
>     VRB    - VARIABLE WIND DIRECTION                     <
>                                                          <
>>>>>>>>>>>>>>>>>>>>>>>>>>>> KEY <<<<<<<<<<<<<<<<<<<<<<<<<<<




USA.gov is the U.S. government's official web portal to all federal, state and local government web resources and services.